QPF
0.04 0.05 0.05 0.04 0.04 0.06 0.08 0.11 0.14 0.19 0.19 0.17 0.17 0.15 0.11 0.09 0.09 0.06 0.05 0.05 0.05 0.07 0.05 0.03 0.03 0.04 0.04 0.04 0.04 0.04 0.05 0.05 0.06 0.07 0.07 0.06 0.05 0.05
0.04 0.04 0.04 0.03 0.04 0.04 0.05 0.07 0.10 0.13 0.13 0.14 0.14 0.14 0.12 0.09 0.09 0.08 0.06 0.06 0.05 0.06 0.06 0.05 0.03 0.03 0.03 0.03 0.02 0.03 0.03 0.03 0.04 0.04 0.04 0.04 0.04 0.04
0.04 0.04 0.04 0.04 0.04 0.04 0.04 0.05 0.07 0.09 0.09 0.10 0.10 0.11 0.12 0.11 0.10 0.09 0.07 0.06 0.06 0.05 0.04 0.06 0.06 0.04 0.02 0.02 0.02 0.03 0.03 0.03 0.03 0.02 0.02 0.02 0.02 0.02
0.04 0.05 0.06 0.06 0.05 0.05 0.05 0.05 0.06 0.08 0.08 0.09 0.10 0.09 0.10 0.10 0.09 0.09 0.07 0.06 0.06 0.06 0.06 0.04 0.08 0.09 0.05 0.03 0.03 0.04 0.04 0.03 0.03 0.03 0.02 0.02 0.03 0.02
0.05 0.05 0.06 0.06 0.06 0.06 0.05 0.05 0.05 0.04 0.06 0.06 0.08 0.08 0.10 0.10 0.09 0.08 0.07 0.07 0.05 0.06 0.08 0.06 0.06 0.09 0.08 0.06 0.04 0.04 0.05 0.04 0.03 0.03 0.03 0.03 0.03 0.03
0.05 0.05 0.05 0.05 0.06 0.07 0.06 0.06 0.05 0.05 0.06 0.06 0.06 0.06 0.09 0.10 0.09 0.08 0.08 0.08 0.05 0.04 0.05 0.06 0.05 0.05 0.06 0.06 0.05 0.04 0.04 0.04 0.03 0.03 0.03 0.03 0.03 0.03
0.05 0.05 0.04 0.04 0.03 0.04 0.04 0.05 0.06 0.07 0.08 0.07 0.06 0.05 0.06 0.09 0.10 0.09 0.07 0.06 0.06 0.06 0.05 0.03 0.02 0.03 0.04 0.05 0.05 0.04 0.04 0.04 0.04 0.03 0.02 0.03 0.03 0.03
0.05 0.05 0.05 0.04 0.03 0.02 0.02 0.03 0.04 0.07 0.08 0.08 0.07 0.06 0.05 0.06 0.07 0.07 0.07 0.06 0.05 0.05 0.07 0.06 0.04 0.03 0.04 0.05 0.05 0.05 0.05 0.04 0.04 0.04 0.04 0.04 0.03 0.03
0.07 0.07 0.05 0.05 0.06 0.04 0.03 0.03 0.02 0.03 0.04 0.06 0.07 0.06 0.06 0.06 0.06 0.05 0.05 0.06 0.05 0.05 0.05 0.05 0.05 0.06 0.05 0.06 0.07 0.06 0.05 0.05 0.03 0.03 0.03 0.03 0.03 0.03
0.07 0.07 0.07 0.07 0.06 0.06 0.06 0.05 0.04 0.04 0.05 0.05 0.06 0.06 0.05 0.06 0.07 0.07 0.06 0.05 0.05 0.05 0.04 0.04 0.04 0.06 0.07 0.07 0.07 0.07 0.06 0.05 0.04 0.04 0.04 0.03 0.03 0.03
0.05 0.05 0.06 0.06 0.06 0.07 0.07 0.07 0.06 0.06 0.06 0.05 0.05 0.05 0.05 0.05 0.05 0.06 0.06 0.06 0.05 0.05 0.05 0.05 0.04 0.05 0.08 0.08 0.07 0.08 0.06 0.04 0.03 0.05 0.05 0.04 0.03 0.04
0.04 0.04 0.03 0.04 0.04 0.05 0.05 0.05 0.04 0.04 0.04 0.06 0.06 0.05 0.04 0.05 0.05 0.06 0.06 0.06 0.07 0.07 0.07 0.07 0.06 0.06 0.06 0.08 0.07 0.07 0.07 0.05 0.04 0.04 0.05 0.05 0.05 0.04
0.03 0.03 0.03 0.02 0.02 0.02 0.03 0.03 0.03 0.03 0.02 0.03 0.05 0.06 0.05 0.06 0.06 0.06 0.06 0.08 0.09 0.08 0.07 0.08 0.07 0.07 0.05 0.04 0.05 0.07 0.07 0.07 0.05 0.05 0.04 0.03 0.03 0.04
0.04 0.04 0.03 0.03 0.03 0.02 0.02 0.02 0.02 0.02 0.02 0.02 0.03 0.05 0.05 0.04 0.03 0.04 0.05 0.05 0.07 0.08 0.09 0.11 0.10 0.08 0.06 0.04 0.04 0.05 0.07 0.08 0.10 0.10 0.07 0.04 0.03 0.03
0.04 0.05 0.04 0.03 0.03 0.02 0.02 0.02 0.01 0.01 0.02 0.03 0.03 0.04 0.04 0.03 0.03 0.04 0.04 0.05 0.06 0.06 0.08 0.11 0.12 0.11 0.11 0.07 0.05 0.05 0.07 0.07 0.09 0.11 0.11 0.08 0.06 0.04
0.04 0.04 0.05 0.05 0.04 0.03 0.02 0.02 0.02 0.02 0.03 0.03 0.03 0.03 0.04 0.04 0.04 0.04 0.04 0.05 0.06 0.06 0.06 0.08 0.10 0.12 0.12 0.11 0.08 0.07 0.08 0.09 0.09 0.10 0.10 0.09 0.08 0.07
0.02 0.02 0.02 0.03 0.03 0.02 0.02 0.02 0.03 0.03 0.03 0.02 0.03 0.03 0.03 0.04 0.04 0.03 0.04 0.04 0.06 0.06 0.06 0.07 0.05 0.06 0.08 0.10 0.11 0.08 0.06 0.06 0.09 0.12 0.11 0.10 0.08 0.08
0.01 0.01 0.01 0.02 0.02 0.02 0.01 0.01 0.02 0.03 0.03 0.03 0.03 0.02 0.03 0.04 0.05 0.04 0.03 0.03 0.04 0.06 0.06 0.05 0.05 0.05 0.05 0.05 0.06 0.09 0.09 0.08 0.10 0.14 0.12 0.11 0.10 0.09
0.01 0.01 0.02 0.02 0.02 0.01 0.01 0.01 0.02 0.02 0.03 0.02 0.02 0.02 0.02 0.03 0.03 0.03 0.03 0.03 0.03 0.04 0.05 0.06 0.06 0.06 0.06 0.05 0.04 0.05 0.08 0.11 0.13 0.14 0.13 0.11 0.10 0.12
0.02 0.01 0.01 0.01 0.01 0.01 0.01 0.01 0.02 0.02 0.02 0.02 0.02 0.02 0.02 0.02 0.03 0.03 0.03 0.03 0.03 0.04 0.06 0.05 0.05 0.06 0.07 0.06 0.07 0.06 0.07 0.08 0.08 0.09 0.09 0.08 0.09 0.11
0.02 0.02 0.01 0.01 0.02 0.02 0.02 0.02 0.02 0.02 0.02 0.02 0.02 0.02 0.02 0.02 0.02 0.02 0.02 0.03 0.04 0.04 0.06 0.06 0.06 0.05 0.07 0.09 0.08 0.06 0.04 0.04 0.04 0.05 0.06 0.06 0.07 0.09
0.03 0.03 0.03 0.03 0.03 0.04 0.03 0.02 0.02 0.02 0.03 0.03 0.03 0.03 0.02 0.02 0.02 0.02 0.02 0.03 0.03 0.04 0.04 0.05 0.06 0.05 0.06 0.07 0.06 0.05 0.04 0.03 0.04 0.06 0.07 0.06 0.05 0.06
0.02 0.02 0.02 0.02 0.02 0.02 0.02 0.02 0.02 0.02 0.03 0.03 0.04 0.04 0.03 0.03 0.02 0.03 0.03 0.03 0.03 0.03 0.03 0.04 0.04 0.04 0.04 0.04 0.04 0.03 0.04 0.05 0.05 0.05 0.05 0.04 0.04 0.05
MSLP
1006.94 1007.07 1007.23 1007.37 1007.47 1007.51 1007.45 1007.31 1007.07 1006.75 1006.37 1005.97 1005.55 1005.16 1004.82 1004.53 1004.32 1004.19 1004.16 1004.22 1004.38 1004.63 1004.98 1005.40 1005.89 1006.44 1007.02 1007.61 1008.22 1008.82 1009.41 1009.99 1010.55 1011.11 1011.67 1012.22 1012.78 1013.35
1006.26 1006.34 1006.46 1006.57 1006.67 1006.71 1006.69 1006.59 1006.40 1006.14 1005.82 1005.46 1005.09 1004.71 1004.37 1004.06 1003.80 1003.60 1003.47 1003.42 1003.46 1003.59 1003.81 1004.13 1004.55 1005.05 1005.63 1006.26 1006.94 1007.65 1008.37 1009.10 1009.81 1010.51 1011.18 1011.83 1012.46 1013.06
1005.67 1005.69 1005.75 1005.82 1005.90 1005.96 1005.96 1005.91 1005.79 1005.61 1005.37 1005.10 1004.79 1004.48 1004.16 1003.85 1003.56 1003.30 1003.07 1002.89 1002.79 1002.76 1002.84 1003.02 1003.33 1003.75 1004.29 1004.93 1005.67 1006.47 1007.31 1008.17 1009.02 1009.86 1010.65 1011.40 1012.09 1012.73
1005.19 1005.13 1005.13 1005.16 1005.22 1005.27 1005.30 1005.29 1005.24 1005.14 1004.99 1004.81 1004.60 1004.36 1004.09 1003.81 1003.51 1003.20 1002.90 1002.61 1002.36 1002.19 1002.10 1002.14 1002.31 1002.63 1003.11 1003.74 1004.50 1005.36 1006.29 1007.26 1008.24 1009.19 1010.10 1010.93 1011.69 1012.36
1004.79 1004.68 1004.63 1004.62 1004.65 1004.70 1004.73 1004.75 1004.74 1004.71 1004.63 1004.54 1004.40 1004.24 1004.04 1003.80 1003.51 1003.19 1002.84 1002.47 1002.13 1001.83 1001.61 1001.51 1001.56 1001.79 1002.20 1002.78 1003.54 1004.43 1005.42 1006.47 1007.53 1008.58 1009.56 1010.47 1011.27 1011.98
1004.48 1004.33 1004.24 1004.21 1004.22 1004.24 1004.27 1004.29 1004.29 1004.28 1004.24 1004.19 1004.12 1004.01 1003.87 1003.68 1003.43 1003.13 1002.77 1002.38 1001.98 1001.61 1001.31 1001.13 1001.09 1001.23 1001.58 1002.12 1002.85 1003.75 1004.76 1005.84 1006.96 1008.05 1009.09 1010.04 1010.88 1011.61
1004.24 1004.09 1003.99 1003.94 1003.92 1003.92 1003.91 1003.90 1003.87 1003.84 1003.79 1003.74 1003.68 1003.60 1003.50 1003.35 1003.15 1002.90 1002.58 1002.22 1001.83 1001.46 1001.14 1000.93 1000.85 1000.95 1001.25 1001.75 1002.45 1003.32 1004.32 1005.41 1006.53 1007.64 1008.70 1009.66 1010.52 1011.27
1004.07 1003.93 1003.84 1003.79 1003.76 1003.73 1003.67 1003.60 1003.51 1003.40 1003.29 1003.19 1003.09 1003.00 1002.90 1002.79 1002.64 1002.44 1002.20 1001.91 1001.59 1001.28 1001.01 1000.83 1000.77 1000.87 1001.15 1001.63 1002.30 1003.14 1004.10 1005.16 1006.25 1007.34 1008.38 1009.34 1010.19 1010.94
1003.95 1003.85 1003.80 1003.77 1003.73 1003.66 1003.55 1003.39 1003.20 1002.99 1002.78 1002.58 1002.40 1002.26 1002.14 1002.03 1001.91 1001.79 1001.63 1001.44 1001.23 1001.03 1000.86 1000.76 1000.77 1000.91 1001.21 1001.68 1002.32 1003.12 1004.03 1005.03 1006.07 1007.10 1008.10 1009.03 1009.87 1010.61
1003.89 1003.86 1003.85 1003.85 1003.81 1003.71 1003.55 1003.31 1003.02 1002.69 1002.35 1002.03 1001.74 1001.51 1001.33 1001.20 1001.11 1001.03 1000.95 1000.88 1000.79 1000.72 1000.68 1000.69 1000.79 1000.99 1001.33 1001.81 1002.43 1003.18 1004.04 1004.96 1005.92 1006.89 1007.83 1008.70 1009.51 1010.23
1003.91 1003.93 1003.98 1004.01 1003.99 1003.88 1003.68 1003.37 1002.99 1002.55 1002.08 1001.64 1001.24 1000.91 1000.66 1000.49 1000.38 1000.33 1000.32 1000.34 1000.37 1000.42 1000.50 1000.63 1000.82 1001.10 1001.48 1001.97 1002.57 1003.27 1004.06 1004.91 1005.78 1006.66 1007.52 1008.34 1009.09 1009.79
1004.00 1004.08 1004.17 1004.24 1004.24 1004.14 1003.92 1003.57 1003.13 1002.61 1002.06 1001.51 1001.01 1000.59 1000.27 1000.04 999.91 999.87 999.89 999.96 1000.07 1000.22 1000.40 1000.62 1000.89 1001.23 1001.64 1002.13 1002.71 1003.36 1004.07 1004.83 1005.62 1006.41 1007.19 1007.93 1008.64 1009.30
1004.15 1004.27 1004.40 1004.50 1004.53 1004.45 1004.24 1003.89 1003.43 1002.87 1002.28 1001.68 1001.12 1000.63 1000.25 999.98 999.82 999.76 999.78 999.88 1000.03 1000.22 1000.45 1000.73 1001.04 1001.41 1001.83 1002.31 1002.84 1003.44 1004.08 1004.75 1005.44 1006.15 1006.84 1007.52 1008.17 1008.79
1004.35 1004.48 1004.63 1004.75 1004.81 1004.76 1004.59 1004.27 1003.83 1003.30 1002.71 1002.11 1001.54 1001.04 1000.63 1000.32 1000.13 1000.04 1000.05 1000.13 1000.28 1000.48 1000.72 1001.00 1001.32 1001.68 1002.08 1002.53 1003.01 1003.54 1004.10 1004.69 1005.30 1005.91 1006.53 1007.15 1007.75 1008.33
1004.57 1004.68 1004.83 1004.97 1005.05 1005.04 1004.91 1004.65 1004.27 1003.81 1003.28 1002.73 1002.19 1001.71 1001.31 1001.00 1000.79 1000.67 1000.65 1000.70 1000.82 1000.99 1001.20 1001.45 1001.74 1002.07 1002.42 1002.81 1003.24 1003.69 1004.18 1004.68 1005.21 1005.75 1006.31 1006.86 1007.42 1007.96
1004.79 1004.87 1005.00 1005.13 1005.22 1005.24 1005.16 1004.97 1004.68 1004.30 1003.87 1003.40 1002.94 1002.52 1002.16 1001.87 1001.66 1001.53 1001.47 1001.49 1001.56 1001.68 1001.85 1002.05 1002.28 1002.54 1002.84 1003.17 1003.52 1003.91 1004.32 1004.75 1005.21 1005.69 1006.18 1006.69 1007.19 1007.70
1005.02 1005.06 1005.15 1005.26 1005.34 1005.38 1005.33 1005.21 1005.00 1004.72 1004.38 1004.02 1003.66 1003.31 1003.01 1002.76 1002.57 1002.44 1002.37 1002.35 1002.38 1002.45 1002.56 1002.70 1002.87 1003.07 1003.30 1003.57 1003.86 1004.18 1004.52 1004.90 1005.29 1005.72 1006.16 1006.62 1007.08 1007.55
1005.30 1005.29 1005.34 1005.40 1005.46 1005.49 1005.47 1005.38 1005.23 1005.03 1004.78 1004.51 1004.24 1003.98 1003.74 1003.54 1003.37 1003.25 1003.17 1003.13 1003.13 1003.16 1003.22 1003.31 1003.43 1003.58 1003.75 1003.96 1004.20 1004.46 1004.76 1005.08 1005.43 1005.80 1006.20 1006.62 1007.05 1007.48
1005.68 1005.63 1005.63 1005.64 1005.66 1005.66 1005.63 1005.55 1005.43 1005.27 1005.09 1004.88 1004.67 1004.46 1004.27 1004.11 1003.97 1003.87 1003.79 1003.74 1003.72 1003.73 1003.76 1003.82 1003.90 1004.01 1004.15 1004.32 1004.51 1004.73 1004.98 1005.26 1005.57 1005.91 1006.27 1006.65 1007.03 1007.43
1006.22 1006.13 1006.08 1006.05 1006.02 1005.98 1005.91 1005.82 1005.69 1005.53 1005.36 1005.17 1004.98 1004.80 1004.63 1004.49 1004.37 1004.27 1004.19 1004.15 1004.12 1004.12 1004.15 1004.19 1004.26 1004.35 1004.47 1004.61 1004.77 1004.96 1005.18 1005.42 1005.69 1005.99 1006.31 1006.65 1006.99 1007.34
1006.92 1006.82 1006.73 1006.66 1006.58 1006.49 1006.38 1006.24 1006.07 1005.89 1005.69 1005.48 1005.27 1005.08 1004.90 1004.75 1004.62 1004.51 1004.44 1004.39 1004.38 1004.38 1004.41 1004.46 1004.53 1004.62 1004.72 1004.85 1004.99 1005.15 1005.34 1005.55 1005.78 1006.04 1006.31 1006.60 1006.90 1007.19
1007.77 1007.66 1007.56 1007.46 1007.34 1007.21 1007.05 1006.86 1006.64 1006.40 1006.14 1005.88 1005.63 1005.39 1005.17 1004.98 1004.83 1004.71 1004.63 1004.58 1004.57 1004.59 1004.63 1004.69 1004.77 1004.86 1004.96 1005.07 1005.19 1005.33 1005.48 1005.65 1005.84 1006.05 1006.28 1006.51 1006.75 1006.98
1008.68 1008.58 1008.48 1008.37 1008.23 1008.07 1007.87 1007.63 1007.36 1007.06 1006.75 1006.42 1006.11 1005.80 1005.53 1005.30 1005.10 1004.96 1004.86 1004.81 1004.80 1004.83 1004.88 1004.96 1005.04 1005.14 1005.24 1005.33 1005.43 1005.54 1005.65 1005.77 1005.91 1006.06 1006.23 1006.40 1006.58 1006.75
Thickness
5727 5727 5727 5728 5729 5729 5728 5725 5718 5712 5714 5719 5721 5725 5726 5726 5725 5723 5722 5720 5719 5717 5717 5715 5714 5713 5712 5712 5712 5711 5710 5710 5709 5709 5708 5706 5705 5704
5722 5721 5721 5722 5723 5723 5723 5722 5719 5713 5710 5714 5715 5718 5718 5719 5717 5717 5716 5716 5715 5713 5712 5711 5710 5709 5709 5708 5708 5707 5707 5706 5705 5705 5704 5703 5702 5701
5717 5716 5715 5716 5716 5716 5716 5716 5713 5711 5706 5708 5711 5712 5711 5710 5711 5712 5712 5711 5710 5709 5708 5707 5706 5706 5705 5704 5703 5702 5702 5702 5701 5701 5700 5699 5698 5697
5712 5711 5710 5711 5709 5709 5708 5708 5707 5706 5702 5699 5701 5703 5704 5705 5705 5705 5706 5706 5705 5704 5703 5703 5702 5701 5700 5699 5698 5698 5697 5697 5696 5696 5695 5695 5694 5693
5708 5706 5705 5704 5702 5702 5701 5701 5701 5701 5698 5695 5694 5696 5696 5698 5697 5698 5699 5698 5698 5698 5697 5697 5697 5696 5695 5695 5694 5693 5692 5691 5690 5690 5689 5688 5688 5688
5702 5701 5700 5698 5696 5695 5695 5693 5693 5692 5691 5689 5687 5687 5687 5689 5688 5687 5687 5688 5688 5690 5690 5691 5690 5690 5690 5689 5689 5688 5687 5686 5685 5685 5684 5683 5682 5682
5695 5695 5693 5692 5690 5688 5687 5685 5685 5684 5682 5681 5679 5679 5679 5678 5677 5678 5677 5678 5679 5681 5681 5682 5683 5683 5683 5683 5683 5683 5682 5681 5679 5679 5678 5678 5677 5676
5687 5686 5686 5684 5683 5681 5680 5678 5677 5675 5673 5672 5671 5670 5670 5671 5671 5671 5669 5668 5667 5673 5672 5672 5675 5675 5677 5677 5678 5678 5677 5675 5674 5673 5672 5671 5671 5670
5680 5679 5678 5678 5675 5673 5672 5672 5670 5669 5668 5665 5664 5663 5663 5664 5663 5662 5662 5660 5660 5663 5663 5663 5667 5667 5670 5672 5672 5672 5671 5669 5668 5667 5666 5665 5664 5664
5674 5672 5670 5668 5667 5664 5663 5663 5662 5662 5662 5661 5660 5659 5659 5658 5657 5656 5655 5655 5656 5657 5658 5655 5658 5659 5662 5663 5664 5665 5664 5663 5662 5660 5660 5659 5658 5658
5668 5666 5664 5661 5658 5656 5654 5654 5653 5653 5655 5655 5654 5653 5652 5651 5650 5648 5647 5645 5645 5648 5650 5649 5650 5651 5653 5654 5656 5656 5656 5655 5655 5654 5653 5653 5652 5651
5660 5659 5657 5653 5650 5647 5645 5644 5643 5644 5645 5645 5645 5645 5645 5644 5643 5642 5640 5638 5638 5639 5642 5642 5642 5643 5642 5645 5646 5646 5647 5647 5647 5647 5646 5646 5645 5644
5651 5650 5648 5645 5642 5640 5637 5636 5635 5635 5636 5636 5637 5638 5638 5637 5637 5636 5635 5633 5632 5631 5635 5635 5634 5634 5633 5634 5636 5637 5638 5638 5638 5638 5638 5639 5639 5638
5643 5642 5639 5637 5635 5632 5630 5629 5628 5627 5627 5628 5628 5629 5629 5629 5630 5630 5629 5629 5628 5627 5628 5628 5627 5626 5625 5625 5626 5628 5629 5631 5631 5631 5631 5632 5632 5632
5636 5633 5631 5629 5627 5626 5624 5622 5620 5619 5619 5618 5618 5619 5620 5621 5621 5621 5621 5621 5621 5621 5622 5622 5621 5621 5620 5619 5619 5620 5620 5622 5623 5625 5626 5625 5626 5626
5628 5626 5624 5622 5620 5618 5616 5614 5612 5611 5610 5610 5610 5611 5612 5612 5611 5611 5611 5611 5610 5611 5613 5614 5614 5614 5612 5613 5613 5613 5614 5614 5616 5618 5620 5620 5621 5621
5619 5619 5617 5615 5612 5610 5608 5606 5605 5604 5602 5601 5602 5602 5603 5602 5602 5603 5602 5602 5601 5601 5602 5604 5606 5606 5606 5606 5606 5607 5608 5609 5610 5611 5612 5612 5613 5615
5611 5610 5609 5608 5605 5603 5601 5599 5598 5596 5595 5594 5594 5593 5594 5594 5594 5594 5594 5594 5593 5594 5595 5596 5596 5597 5597 5599 5600 5601 5602 5603 5604 5605 5606 5606 5606 5608
5605 5604 5603 5601 5600 5597 5595 5593 5591 5590 5588 5587 5586 5586 5586 5586 5587 5586 5587 5586 5587 5587 5588 5589 5589 5589 5588 5589 5592 5594 5594 5596 5598 5598 5600 5601 5601 5602
5602 5599 5597 5596 5594 5591 5589 5587 5586 5585 5583 5582 5581 5580 5580 5580 5580 5579 5580 5580 5580 5581 5581 5583 5583 5584 5583 5584 5585 5587 5589 5590 5591 5592 5594 5595 5594 5594
5597 5594 5592 5590 5588 5585 5583 5581 5579 5578 5577 5576 5575 5574 5574 5574 5574 5574 5574 5573 5574 5575 5575 5577 5578 5579 5580 5580 5579 5580 5581 5583 5585 5586 5588 5588 5588 5588
5591 5590 5587 5585 5582 5579 5576 5574 5572 5571 5570 5569 5568 5568 5567 5567 5567 5567 5567 5568 5568 5569 5570 5572 5573 5573 5573 5573 5574 5574 5576 5577 5579 5580 5581 5583 5583 5583
5586 5584 5582 5579 5576 5573 5570 5568 5566 5564 5563 5562 5561 5560 5560 5560 5560 5560 5561 5562 5563 5563 5563 5564 5566 5567 5568 5569 5570 5570 5571 5572 5573 5574 5574 5577 5579 5580